Home > Weather > Maceió > Past weeks

Flag for Brazil Past Weather in Maceió, Alagoas, Brazil — Yesterday and Last 2 Weeks

Now
82 °F

Scattered clouds.


Feels Like: 88 °F
Forecast: 75 / 83 °F
Wind: 12 mph from South

Location: Maceio Aeroporto

Current Time: May 31, 2016 at 1:10:19 PM

Latest Report: May 31, 2016 at 12:00 PM


Visibility: N/A

Pressure: 29.95 "Hg

Humidity: 74%

Dew Point: 73 °F

Location of MaceióLocation

Past Weather in Maceió — Graph

°F

Maceió Temperature Yesterday

Maximum temperature yesterday: 82 °F (at 1:00 PM)
Minimum temperature yesterday: 73 °F (at 4:00 AM)
Average temperature yesterday: 77 °F

High & Low Weather Summary for the Past Weeks

 TemperatureHumidityPressure
High86 °F (May 17, 12:00 PM)100% (May 17, 2:00 AM)30.09 "Hg (May 17, 2:00 AM)
Low68 °F (May 22, 1:00 AM)55% (May 18, 12:00 PM)29.92 "Hg (May 17, 2:00 PM)
Average77 °F89%30.01 "Hg
* Reported May 16 12:00 PM — May 31 12:00 PM, Maceió, Weather by CustomWeather, © 2016

Note: Actual official high and low records may vary slightly from our data, if they occured in-between our weather recording intervals... More about our weather records

Advertising

Maceió Weather History for the Previous 24 Hours

Scroll right to see more
 ConditionsComfort  
Time TempWeatherWind HumidityBarometerVisibility
12:00 PM
Tue, May 31
82 °FScattered clouds.12 mph74%29.95 "HgN/A
11:00 AM81 °FScattered clouds.7 mph79%29.98 "HgN/A
10:00 AM82 °FBroken clouds.5 mph74%30.01 "HgN/A
9:00 AM81 °FPartly sunny.2 mph84%30.01 "HgN/A
8:00 AM77 °FBroken clouds.3 mph89%30.01 "HgN/A
7:00 AM73 °FScattered clouds.6 mph94%29.98 "HgN/A
6:00 AM73 °FScattered clouds.3 mph94%29.95 "HgN/A
5:00 AM72 °FPassing clouds.3 mph100%29.95 "HgN/A
4:00 AM72 °FPassing clouds.3 mph100%29.92 "HgN/A
3:00 AM73 °FPassing clouds.3 mph100%29.92 "HgN/A
2:00 AM73 °FPassing clouds.3 mph100%29.92 "HgN/A
1:00 AM73 °FPassing clouds.3 mph100%29.92 "HgN/A
12:00 AM73 °FPassing clouds.2 mph94%29.95 "HgN/A
11:00 PM
Mon, May 30
73 °FPassing clouds.6 mph100%29.95 "HgN/A
10:00 PM73 °FPassing clouds.5 mph100%29.95 "HgN/A
9:00 PM73 °FPassing clouds.3 mph100%29.95 "HgN/A
8:00 PM79 °FPassing clouds.2 mph84%29.95 "HgN/A
7:00 PM79 °FPassing clouds.5 mph84%29.95 "HgN/A
6:00 PM81 °FPartly cloudy.5 mph79%29.95 "HgN/A
5:00 PM81 °FBroken clouds.9 mph84%29.92 "HgN/A
4:00 PM81 °FBroken clouds.12 mph84%29.92 "HgN/A
3:00 PM82 °FBroken clouds.9 mph79%29.92 "HgN/A
2:00 PM82 °FBroken clouds.13 mph79%29.92 "Hg4 mi
1:00 PM82 °FPartly sunny.8 mph79%29.95 "HgN/A
Weather by CustomWeather, © 2016

See weather overviewHow to use our weather pages